Time,TemperatureF,DewpointF,PressureIn,WindDirection,WindDirectionDegrees,WindSpeedMPH,WindSpeedGustMPH,Humidity,HourlyPrecipIn,Conditions,Clouds,dailyrainin,SoftwareType,DateUTC
2015-05-22 00:03:00,48.6,37.7,29.26,WSW,256,2.7,2.7,66,0.00,,---,0.00,VWS V15.00,2015-05-22 05:03:00,
2015-05-22 00:08:00,48.4,37.6,29.26,West,260,0.0,0.0,66,0.00,,---,0.00,VWS V15.00,2015-05-22 05:08:00,
2015-05-22 00:13:00,48.4,37.6,29.26,WSW,248,2.7,2.7,66,0.00,,---,0.00,VWS V15.00,2015-05-22 05:13:00,
2015-05-22 00:18:00,48.2,37.4,29.26,West,271,0.0,0.0,66,0.00,,---,0.00,VWS V15.00,2015-05-22 05:18:00,
2015-05-22 00:23:00,48.2,38.5,29.26,WSW,258,0.0,0.0,69,0.00,,---,0.00,VWS V15.00,2015-05-22 05:23:00,
2015-05-22 00:28:00,48.0,38.3,29.26,WSW,258,0.0,0.0,69,0.00,,---,0.00,VWS V15.00,2015-05-22 05:28:00,
2015-05-22 00:33:00,48.0,38.3,29.26,WSW,258,0.0,2.7,69,0.00,,---,0.00,VWS V15.00,2015-05-22 05:33:00,
2015-05-22 00:38:00,48.0,38.3,29.26,WSW,258,0.0,0.0,69,0.00,,---,0.00,VWS V15.00,2015-05-22 05:38:00,
2015-05-22 00:43:00,47.8,38.2,29.26,WSW,252,0.0,2.2,69,0.00,,---,0.00,VWS V15.00,2015-05-22 05:43:00,
2015-05-22 00:48:00,47.8,38.2,29.26,West,260,2.7,3.1,69,0.00,,---,0.00,VWS V15.00,2015-05-22 05:48:00,
2015-05-22 00:53:00,47.8,38.2,29.26,WSW,241,3.1,3.1,69,0.00,,---,0.00,VWS V15.00,2015-05-22 05:53:00,
2015-05-22 00:58:00,47.8,38.2,29.26,West,270,3.6,3.6,69,0.00,,---,0.00,VWS V15.00,2015-05-22 05:58:00,
2015-05-22 01:03:00,48.0,38.3,29.26,WSW,249,3.1,3.1,69,0.00,,---,0.00,VWS V15.00,2015-05-22 06:03:00,
2015-05-22 01:08:00,48.0,38.3,29.26,WSW,255,4.0,4.0,69,0.00,,---,0.00,VWS V15.00,2015-05-22 06:08:00,
2015-05-22 01:14:00,48.0,38.3,29.26,WSW,258,2.2,2.7,69,0.00,,---,0.00,VWS V15.00,2015-05-22 06:14:00,
2015-05-22 01:19:00,48.2,38.5,29.26,West,269,5.4,5.4,69,0.00,,---,0.00,VWS V15.00,2015-05-22 06:19:00,
2015-05-22 01:24:00,48.2,38.5,29.26,WSW,239,2.7,5.8,69,0.00,,---,0.00,VWS V15.00,2015-05-22 06:24:00,
2015-05-22 01:29:00,48.2,38.5,29.26,West,274,2.7,4.0,69,0.00,,---,0.00,VWS V15.00,2015-05-22 06:29:00,
2015-05-22 01:34:00,48.2,38.5,29.26,West,262,3.1,3.1,69,0.00,,---,0.00,VWS V15.00,2015-05-22 06:34:00,
2015-05-22 01:39:00,48.2,38.5,29.26,WSW,242,4.0,5.8,69,0.00,,---,0.00,VWS V15.00,2015-05-22 06:39:00,
2015-05-22 01:44:00,48.0,38.3,29.26,West,267,4.0,4.0,69,0.00,,---,0.00,VWS V15.00,2015-05-22 06:44:00,
2015-05-22 01:49:00,48.0,38.3,29.26,West,268,0.0,0.0,69,0.00,,---,0.00,VWS V15.00,2015-05-22 06:49:00,
2015-05-22 01:54:00,48.0,38.3,29.26,WSW,249,3.6,3.6,69,0.00,,---,0.00,VWS V15.00,2015-05-22 06:54:00,
2015-05-22 01:59:00,48.0,38.3,29.26,West,272,2.7,4.0,69,0.00,,---,0.00,VWS V15.00,2015-05-22 06:59:00,
2015-05-22 02:04:00,48.0,38.3,29.26,WSW,255,0.0,0.0,69,0.00,,---,0.00,VWS V15.00,2015-05-22 07:04:00,
2015-05-22 02:09:00,47.8,38.2,29.26,West,264,0.0,0.0,69,0.00,,---,0.00,VWS V15.00,2015-05-22 07:09:00,
2015-05-22 02:14:00,47.8,38.2,29.26,West,259,0.0,0.0,69,0.00,,---,0.00,VWS V15.00,2015-05-22 07:14:00,
2015-05-22 02:19:00,47.7,38.0,29.26,WSW,251,0.0,4.0,69,0.00,,---,0.00,VWS V15.00,2015-05-22 07:19:00,
2015-05-22 02:24:00,47.5,37.8,29.26,West,264,3.6,3.6,69,0.00,,---,0.00,VWS V15.00,2015-05-22 07:24:00,
2015-05-22 02:29:00,47.5,37.8,29.26,West,259,2.7,2.7,69,0.00,,---,0.00,VWS V15.00,2015-05-22 07:29:00,
2015-05-22 02:34:00,47.3,37.7,29.26,West,260,0.0,0.0,69,0.00,,---,0.00,VWS V15.00,2015-05-22 07:34:00,
2015-05-22 02:39:00,47.1,37.5,29.26,WSW,251,0.0,3.6,69,0.00,,---,0.00,VWS V15.00,2015-05-22 07:39:00,
2015-05-22 02:44:00,47.1,37.5,29.26,WSW,252,0.0,0.0,69,0.00,,---,0.00,VWS V15.00,2015-05-22 07:44:00,
2015-05-22 02:49:00,47.1,37.5,29.26,West,265,2.2,4.0,69,0.00,,---,0.00,VWS V15.00,2015-05-22 07:49:00,
2015-05-22 02:54:00,47.1,37.5,29.26,West,271,0.0,3.6,69,0.00,,---,0.00,VWS V15.00,2015-05-22 07:54:00,
2015-05-22 03:04:00,46.8,37.1,29.26,West,269,0.0,0.0,69,0.00,,---,0.00,VWS V15.00,2015-05-22 08:04:00,
2015-05-22 03:09:00,46.6,37.0,29.26,West,269,0.0,0.0,69,0.00,,---,0.00,VWS V15.00,2015-05-22 08:09:00,
2015-05-22 03:14:00,46.4,36.8,29.26,West,269,0.0,0.0,69,0.00,,---,0.00,VWS V15.00,2015-05-22 08:14:00,
2015-05-22 03:19:00,46.4,36.8,29.26,West,269,0.0,0.0,69,0.00,,---,0.00,VWS V15.00,2015-05-22 08:19:00,
2015-05-22 03:24:00,46.6,37.0,29.26,West,268,3.6,3.6,69,0.00,,---,0.00,VWS V15.00,2015-05-22 08:24:00,
2015-05-22 03:29:00,46.6,37.0,29.26,West,267,0.0,0.0,69,0.00,,---,0.00,VWS V15.00,2015-05-22 08:29:00,
2015-05-22 03:34:00,46.6,37.0,29.26,West,264,2.7,4.0,69,0.00,,---,0.00,VWS V15.00,2015-05-22 08:34:00,
2015-05-22 03:39:00,46.6,37.0,29.26,WSW,257,4.0,4.0,69,0.00,,---,0.00,VWS V15.00,2015-05-22 08:39:00,
2015-05-22 03:44:00,46.8,37.1,29.26,West,264,0.0,0.0,69,0.00,,---,0.00,VWS V15.00,2015-05-22 08:44:00,
2015-05-22 03:49:00,46.8,38.2,29.26,WSW,251,4.9,5.4,72,0.00,,---,0.00,VWS V15.00,2015-05-22 08:49:00,
2015-05-22 03:54:00,46.6,38.0,29.26,West,263,2.2,3.6,72,0.00,,---,0.00,VWS V15.00,2015-05-22 08:54:00,
2015-05-22 03:59:00,46.6,38.0,29.26,West,272,4.9,4.9,72,0.00,,---,0.00,VWS V15.00,2015-05-22 08:59:00,
2015-05-22 04:04:00,46.4,37.9,29.26,West,264,5.8,5.8,72,0.00,,---,0.00,VWS V15.00,2015-05-22 09:04:00,
2015-05-22 04:09:00,46.2,37.7,29.26,WSW,250,0.0,4.5,72,0.00,,---,0.00,VWS V15.00,2015-05-22 09:09:00,
2015-05-22 04:14:00,45.9,37.4,29.29,West,264,0.0,0.0,72,0.00,,---,0.00,VWS V15.00,2015-05-22 09:14:00,
2015-05-22 04:19:00,45.9,37.4,29.29,West,264,3.1,5.8,72,0.00,,---,0.00,VWS V15.00,2015-05-22 09:19:00,
2015-05-22 04:24:00,45.7,37.2,29.29,WSW,251,2.7,4.9,72,0.00,,---,0.00,VWS V15.00,2015-05-22 09:24:00,
2015-05-22 04:29:00,45.9,37.4,29.29,WSW,254,2.7,4.9,72,0.00,,---,0.00,VWS V15.00,2015-05-22 09:29:00,
2015-05-22 04:34:00,45.7,37.2,29.29,West,264,4.0,5.4,72,0.00,,---,0.00,VWS V15.00,2015-05-22 09:34:00,
2015-05-22 04:39:00,45.7,37.2,29.29,WSW,250,3.6,5.4,72,0.00,,---,0.00,VWS V15.00,2015-05-22 09:39:00,
2015-05-22 04:44:00,45.7,37.5,29.29,WSW,241,3.1,5.8,73,0.00,,---,0.00,VWS V15.00,2015-05-22 09:44:00,
2015-05-22 04:49:00,45.5,37.4,29.29,West,260,3.6,4.0,73,0.00,,---,0.00,VWS V15.00,2015-05-22 09:49:00,
2015-05-22 04:54:00,45.5,37.4,29.29,WSW,256,4.0,5.4,73,0.00,,---,0.00,VWS V15.00,2015-05-22 09:54:00,
2015-05-22 04:59:00,45.7,37.5,29.29,WSW,256,2.7,5.8,73,0.00,,---,0.00,VWS V15.00,2015-05-22 09:59:00,
2015-05-22 05:04:00,45.9,37.7,29.29,SW,236,3.1,5.8,73,0.00,,---,0.00,VWS V15.00,2015-05-22 10:04:00,
2015-05-22 05:09:00,45.7,37.5,29.29,WSW,258,4.0,4.0,73,0.00,,---,0.00,VWS V15.00,2015-05-22 10:09:00,
2015-05-22 05:14:00,45.5,37.4,29.29,West,260,4.0,4.0,73,0.00,,---,0.00,VWS V15.00,2015-05-22 10:14:00,
2015-05-22 05:19:00,45.5,37.4,29.29,WSW,256,4.0,4.0,73,0.00,,---,0.00,VWS V15.00,2015-05-22 10:19:00,
2015-05-22 05:24:00,45.5,37.4,29.29,SW,235,2.7,6.3,73,0.00,,---,0.00,VWS V15.00,2015-05-22 10:24:00,
2015-05-22 05:29:00,45.7,37.5,29.29,West,268,4.9,7.6,73,0.00,,---,0.00,VWS V15.00,2015-05-22 10:29:00,
2015-05-22 05:34:00,45.9,37.7,29.29,WSW,257,2.7,2.7,73,0.00,,---,0.00,VWS V15.00,2015-05-22 10:34:00,
2015-05-22 05:39:00,45.9,37.7,29.29,WSW,246,2.7,5.8,73,0.00,,---,0.00,VWS V15.00,2015-05-22 10:39:00,
2015-05-22 05:44:00,46.0,37.9,29.32,West,263,5.4,5.4,73,0.00,,---,0.00,VWS V15.00,2015-05-22 10:44:00,
2015-05-22 05:49:00,46.2,38.1,29.32,WSW,241,3.1,6.3,73,0.00,,---,0.00,VWS V15.00,2015-05-22 10:49:00,
2015-05-22 05:54:00,46.4,38.2,29.32,WSW,253,6.3,6.3,73,0.00,,---,0.00,VWS V15.00,2015-05-22 10:54:00,
2015-05-22 05:59:00,46.4,38.2,29.32,West,277,3.6,4.0,73,0.00,,---,0.00,VWS V15.00,2015-05-22 10:59:00,
2015-05-22 06:04:00,46.6,38.4,29.32,SW,225,4.9,5.4,73,0.00,,---,0.00,VWS V15.00,2015-05-22 11:04:00,
2015-05-22 06:14:00,46.9,38.8,29.32,West,259,5.4,6.3,73,0.00,,---,0.00,VWS V15.00,2015-05-22 11:14:00,
2015-05-22 06:19:00,47.1,38.9,29.32,SW,235,5.4,5.8,73,0.00,,---,0.00,VWS V15.00,2015-05-22 11:19:00,
2015-05-22 06:24:00,47.5,39.3,29.32,SW,232,4.9,4.9,73,0.00,,---,0.00,VWS V15.00,2015-05-22 11:24:00,
2015-05-22 06:29:00,47.7,39.4,29.32,West,269,2.2,5.8,73,0.00,,---,0.00,VWS V15.00,2015-05-22 11:29:00,
2015-05-22 06:34:00,48.0,39.4,29.32,WSW,245,6.3,6.3,72,0.00,,---,0.00,VWS V15.00,2015-05-22 11:34:00,
2015-05-22 06:39:00,48.4,39.8,29.32,West,266,0.0,4.0,72,0.00,,---,0.00,VWS V15.00,2015-05-22 11:39:00,
2015-05-22 06:44:00,48.7,40.1,29.32,West,264,3.1,4.9,72,0.00,,---,0.00,VWS V15.00,2015-05-22 11:44:00,
2015-05-22 06:49:00,49.1,40.5,29.32,WSW,257,2.7,3.1,72,0.00,,---,0.00,VWS V15.00,2015-05-22 11:49:00,
2015-05-22 06:54:00,49.5,40.5,29.32,WSW,252,2.2,3.1,71,0.00,,---,0.00,VWS V15.00,2015-05-22 11:54:00,
2015-05-22 06:59:00,50.0,41.0,29.32,West,271,3.1,8.1,71,0.00,,---,0.00,VWS V15.00,2015-05-22 11:59:00,
2015-05-22 07:04:00,50.4,40.6,29.32,WNW,290,5.4,5.4,69,0.00,,---,0.00,VWS V15.00,2015-05-22 12:04:00,
2015-05-22 07:09:00,51.1,41.3,29.32,West,263,0.0,3.6,69,0.00,,---,0.00,VWS V15.00,2015-05-22 12:09:00,
2015-05-22 07:14:00,51.6,41.8,29.32,West,262,3.6,4.0,69,0.00,,---,0.00,VWS V15.00,2015-05-22 12:14:00,
2015-05-22 07:19:00,52.3,42.1,29.32,WSW,246,3.1,4.0,68,0.00,,---,0.00,VWS V15.00,2015-05-22 12:19:00,
2015-05-22 07:24:00,52.9,41.8,29.32,WSW,249,0.0,3.6,66,0.00,,---,0.00,VWS V15.00,2015-05-22 12:24:00,
2015-05-22 07:29:00,53.4,42.4,29.32,West,264,3.6,5.4,66,0.00,,---,0.00,VWS V15.00,2015-05-22 12:29:00,
2015-05-22 07:34:00,54.3,42.8,29.32,SW,223,5.8,5.8,65,0.00,,---,0.00,VWS V15.00,2015-05-22 12:34:00,
2015-05-22 07:39:00,55.6,44.0,29.32,West,259,2.7,4.9,65,0.00,,---,0.00,VWS V15.00,2015-05-22 12:39:00,
2015-05-22 07:44:00,56.7,45.0,29.32,WNW,282,3.1,8.3,65,0.00,,---,0.00,VWS V15.00,2015-05-22 12:44:00,
2015-05-22 07:49:00,57.2,45.2,29.32,NW,317,0.0,0.0,64,0.00,,---,0.00,VWS V15.00,2015-05-22 12:49:00,
2015-05-22 07:54:00,58.3,46.2,29.35,WSW,245,2.7,4.9,64,0.00,,---,0.00,VWS V15.00,2015-05-22 12:54:00,
2015-05-22 07:59:00,59.2,47.0,29.35,NW,313,2.7,8.1,64,0.00,,---,0.00,VWS V15.00,2015-05-22 12:59:00,
2015-05-22 08:04:00,59.5,47.4,29.35,SW,227,3.1,4.0,64,0.00,,---,0.00,VWS V15.00,2015-05-22 13:04:00,
2015-05-22 08:09:00,60.6,48.4,29.35,West,269,4.9,5.8,64,0.00,,---,0.00,VWS V15.00,2015-05-22 13:09:00,
2015-05-22 08:14:00,61.0,48.7,29.35,WNW,302,6.3,6.3,64,0.00,,---,0.00,VWS V15.00,2015-05-22 13:14:00,
2015-05-22 08:19:00,61.3,49.1,29.35,WSW,242,2.7,5.8,64,0.00,,---,0.00,VWS V15.00,2015-05-22 13:19:00,
2015-05-22 08:24:00,61.7,49.4,29.35,SW,214,3.1,3.6,64,0.00,,---,0.00,VWS V15.00,2015-05-22 13:24:00,
2015-05-22 08:29:00,63.0,50.2,29.35,West,263,4.0,4.9,63,0.00,,---,0.00,VWS V15.00,2015-05-22 13:29:00,
2015-05-22 08:34:00,63.7,50.9,29.35,WSW,251,3.6,3.6,63,0.00,,---,0.00,VWS V15.00,2015-05-22 13:34:00,
2015-05-22 08:40:00,63.5,50.7,29.35,NW,305,2.7,2.7,63,0.00,,---,0.00,VWS V15.00,2015-05-22 13:40:00,
2015-05-22 08:44:00,64.2,51.4,29.35,WSW,254,0.0,0.0,63,0.00,,---,0.00,VWS V15.00,2015-05-22 13:44:00,
2015-05-22 08:50:00,65.1,52.2,29.35,WNW,298,2.2,2.2,63,0.00,,---,0.00,VWS V15.00,2015-05-22 13:50:00,
2015-05-22 08:54:00,65.1,52.2,29.35,West,270,2.7,2.7,63,0.00,,---,0.00,VWS V15.00,2015-05-22 13:54:00,
2015-05-22 09:00:00,65.7,52.7,29.35,West,279,0.0,0.0,63,0.00,,---,0.00,VWS V15.00,2015-05-22 14:00:00,
2015-05-22 09:05:00,66.6,53.2,29.35,SSW,199,7.6,7.6,62,0.00,,---,0.00,VWS V15.00,2015-05-22 14:05:00,
2015-05-22 09:10:00,66.7,53.3,29.35,SW,218,7.6,7.6,62,0.00,,---,0.00,VWS V15.00,2015-05-22 14:10:00,